Tacoma Narrows, WA
on Tuesday, November 13, 2012

Tuesday
Previous Day Next Day
Daily Summary
 ActualAverageRecord
Temperature
Mean Temperature °F °F  
Max Temperature 50°F 49°F 59°F (1997)
Min Temperature 48°F 41°F 32°F (2014)
Degree Days
Heating Degree Days 16    
Moisture
Dew Point 47°F   
Average Humidity 91    
Maximum Humidity 94    
Minimum Humidity 86    
Precipitation
Precipitation 0.29 in in in ()
Wind
Wind Speed 2 mph   
Max Wind Speed 10 mph   
Max Gust Speed mph   
Visibility 9 miles   
Events Rain   
Averages and records for this station are not official NWS values.
Key: T is trace of precipitation, MM is missing value
Source: NWS Daily Summary
Seasonal Weather Averages
Time(PST)TemperatureDew PointHumidity Pressure Visibility Wind DirectionWind SpeedGust SpeedPrecipitationEvents Conditions
12:16 AM 48.2°F 46.4°F 93% 30.21 in 10.0 miles Calm Calm - N/A   Overcast
12:25 AM 48.2°F 46.4°F 93% 30.21 in 10.0 miles Calm Calm - N/A   Overcast
12:34 AM 48.2°F 46.4°F 93% 30.22 in 10.0 miles Calm Calm - N/A   Overcast
12:53 AM 48.9°F 46.0°F 90% 30.22 in 10.0 miles Calm Calm - N/A   Overcast
1:53 AM 48.0°F 46.0°F 93% 30.21 in 10.0 miles SE 3.5 mph - 0.01 in   Overcast
2:53 AM 48.9°F 46.0°F 90% 30.21 in 6.0 miles Calm Calm - 0.02 in Rain Light Rain
3:32 AM 48.2°F 46.4°F 93% 30.20 in 7.0 miles Calm Calm - N/A Rain Light Rain
3:53 AM 48.9°F 46.0°F 90% 30.20 in 9.0 miles Calm Calm - 0.03 in Rain Light Rain
4:16 AM 48.2°F 46.4°F 93% 30.20 in 5.0 miles SW 4.6 mph - 0.01 in Rain Light Rain
4:53 AM 48.9°F 46.0°F 90% 30.20 in 9.0 miles South 5.8 mph - 0.03 in   Overcast
5:09 AM 48.2°F 46.4°F 93% 30.20 in 10.0 miles South 5.8 mph - N/A   Overcast
5:53 AM 48.9°F 46.0°F 90% 30.20 in 10.0 miles South 9.2 mph - N/A   Overcast
6:09 AM 48.2°F 46.4°F 93% 30.20 in 10.0 miles SSW 10.4 mph - N/A   Overcast
6:40 AM 48.2°F 46.4°F 93% 30.20 in 10.0 miles South 5.8 mph - N/A   Mostly Cloudy
6:53 AM 48.0°F 46.0°F 93% 30.20 in 10.0 miles SSW 4.6 mph - N/A   Mostly Cloudy
7:53 AM 48.0°F 46.0°F 93% 30.20 in 10.0 miles Calm Calm - N/A   Overcast
8:53 AM 48.9°F 46.0°F 90% 30.20 in 10.0 miles Calm Calm - N/A   Overcast
9:39 AM 48.2°F 46.4°F 93% 30.20 in 10.0 miles Calm Calm - N/A   Overcast
9:53 AM 48.9°F 45.0°F 86% 30.20 in 10.0 miles Calm Calm - 0.00 in Rain Light Rain
10:53 AM 50.0°F 46.0°F 86% 30.20 in 10.0 miles SSW 3.5 mph - 0.00 in Rain Light Rain
11:53 AM 50.0°F 46.9°F 89% 30.18 in 10.0 miles Calm Calm - 0.00 in Rain Light Rain
12:53 PM 50.0°F 46.9°F 89% 30.17 in 10.0 miles Calm Calm - 0.01 in Rain Light Rain
1:53 PM 50.0°F 46.9°F 89% 30.17 in 6.0 miles Calm Calm - 0.02 in Rain Light Rain
2:53 PM 50.0°F 46.9°F 89% 30.16 in 3.0 miles Calm Calm - 0.06 in Rain Light Rain
3:53 PM 50.0°F 46.9°F 89% 30.15 in 7.0 miles Calm Calm - 0.06 in Rain Light Rain
4:53 PM 50.0°F 46.9°F 89% 30.14 in 8.0 miles Calm Calm - 0.00 in   Overcast
5:00 PM 50.0°F 48.2°F 94% 30.14 in 8.0 miles Calm Calm - N/A   Overcast
5:06 PM 50.0°F 48.2°F 94% 30.14 in 8.0 miles Calm Calm - N/A   Overcast
5:53 PM 50.0°F 48.0°F 93% 30.14 in 9.0 miles Calm Calm - N/A   Overcast
6:13 PM 50.0°F 46.4°F 87% 30.14 in 9.0 miles Calm Calm - 0.00 in Rain Light Rain
6:53 PM 50.0°F 46.9°F 89% 30.14 in 9.0 miles Calm Calm - 0.01 in Rain Light Rain
7:07 PM 50.0°F 46.4°F 87% 30.13 in 6.0 miles Calm Calm - 0.01 in Rain Light Rain
7:53 PM 48.9°F 46.9°F 93% 30.14 in 9.0 miles Calm Calm - 0.01 in   Overcast
8:00 PM 48.2°F 46.4°F 93% 30.14 in 9.0 miles Calm Calm - N/A   Overcast
8:53 PM 48.9°F 46.9°F 93% 30.15 in 10.0 miles Calm Calm - 0.00 in Rain Light Rain
9:53 PM 48.9°F 46.9°F 93% 30.16 in 9.0 miles Calm Calm - 0.01 in Rain Light Rain
10:15 PM 50.0°F 46.4°F 87% 30.16 in 8.0 miles SSW 3.5 mph - 0.00 in Rain Light Rain
10:27 PM 50.0°F 46.4°F 87% 30.16 in 8.0 miles SSW 3.5 mph - 0.00 in Rain Light Rain
10:51 PM 50.0°F 46.4°F 87% 30.17 in 10.0 miles SSW 4.6 mph - 0.01 in   Overcast
10:53 PM 50.0°F 46.9°F 89% 30.17 in 10.0 miles SSW 4.6 mph - 0.01 in   Overcast
11:05 PM 50.0°F 46.4°F 87% 30.16 in 6.0 miles SSW 5.8 mph - N/A   Overcast
11:53 PM 50.0°F 46.9°F 89% 30.18 in 6.0 miles SSW 6.9 mph - 0.01 in Rain Light Rain
Moon Phase
Nov. 13 Nov. 13 Nov. 20 Nov. 28 Dec. 06
Sunrise:07:12 AM (PST) Moon Rise:06:58 AM (PST)11/13
Sunset:04:36 PM (PST) Moon Set:04:31 PM (PST)11/13

Copyright © 2014 The Weather Underground, Inc.